Volver al catálogo

STARLINK-36593

ActivoComunicacionesSSO
NORAD 67564·PAYLOAD·🇺🇸 United States

Lanzado Jan 25, 2026 desde Vandenberg Space Force Base

Loading…

Próximos Pases (próximas 24 horas)

TLE

ActualizadoSource: CelesTrak SupGP

Época: Sep 15, 2026, 03:54 UTC

1 67564C 26016D   26258.16298611 -.00042481  00000+0 -13187-2 0  2580
2 67564  97.2847 316.8967 0000948  79.5989 234.7168 15.33460721    19

Sigue STARLINK-36593 en tiempo real con AllMySat

Download on the App Store